Regional Weather Roundup
Issued by NWS Charleston, WV

Home | Current Version | Previous Version | Graphics & Text | Print | Product List | Glossary On
Versions: 1 2 3 4 5 6 7 8 9 10 11 12 13 14 15 16 17 18 19 20 21 22 23 24 25 26 27 28 29 30 31 32 33 34 35 36 37 38 39 40 41 42 43 44 45 46 47 48 49 50
000
ASUS41 KRLX 231210
RWRRLX
West Virginia Regional Weather Roundup
National Weather Service Charleston WV
800 AM EDT TUE SEP 23 2014

Note: "fair" indicates few or no clouds below 12,000 feet with no
significant weather and/or obstructions to visibility.

WVZ003-231300-
Northern Panhandle of West Virginia

CITY           SKY/WX    TMP DP  RH WIND       PRES   REMARKS
WHEELING       CLEAR     42  41  96 CALM      30.36R FOG
$$

WVZ009-231300-
Northwest West Virginia

CITY           SKY/WX    TMP DP  RH WIND       PRES   REMARKS
PARKERSBURG    FOG       41  40  96 CALM      30.37R VSB 1/16
$$

WVZ006-231300-
Western West Virginia

CITY           SKY/WX    TMP DP  RH WIND       PRES   REMARKS
HUNTINGTON     CLEAR     45  45 100 CALM      30.31R
$$

WVZ015-231300-
West Central West Virginia

CITY           SKY/WX    TMP DP  RH WIND       PRES   REMARKS
CHARLESTON     FOG       45  45 100 E3        30.32R VSB 1/8
$$

WVZ031-231300-
North Central West Virginia

CITY           SKY/WX    TMP DP  RH WIND       PRES   REMARKS
CLARKSBURG     FOG       41  41 100 CALM      30.35R VSB<1/4
MORGANTOWN     CLEAR     44  40  85 CALM      30.36R
$$

WVZ035-042-045-231300-
South Central West Virginia

CITY           SKY/WX    TMP DP  RH WIND       PRES   REMARKS
BECKLEY        CLEAR     39  37  92 CALM      30.31R
BLUEFIELD      FOG       42  39  89 SE5       30.31R VSB<1/4
LEWISBURG      FOG       40  38  95 CALM      30.33S VSB<1/4
$$

WVZ047-231300-
Northern Mountains of West Virginia

CITY           SKY/WX    TMP DP  RH WIND       PRES   REMARKS
ELKINS         FOG       41  41 100 CALM      30.35R VSB 1/4
$$

WVZ052-231300-
Eastern Panhandle of West Virginia

CITY           SKY/WX    TMP DP  RH WIND       PRES   REMARKS
MARTINSBURG    SUNNY     45  40  82 CALM      30.34S
PETERSBURG     FOG       38  37  93 CALM      30.38R VSB 1/4
$$



USA.gov is the U.S. government's official web portal to all federal, state and local government web resources and services.